Date String (YYYY-MM-DD hh:mm:ss) UTC,Instrument flags,Ambient pressure (hPa),Sample flow (lpm),Bypass flow (lpm),Sample temperature (°C),Ambient temperature (°C),ASC tube jacket temperature (°C),LED temperature (°C),Box temperature (°C),Sample RH (%),Span deviation,Mass concentration (μg/m³),Mass concentration (μg/m³),Mass concentration (μg/m³)
DateTimeUTC,F1_M11,P_M11,Q1_M11,Q2_M11,T1_M11,T2_M11,T3_M11,T4_M11,T5_M11,U1_M11,ZSPAN_M11,X0_M11,X2_M11,X1_M11
2023-02-03 18:00:00,,0830.4,4.98,0.00,24.9,23.8,00.0,33.7,26.7,05.3,0000.0,0001.92,0000.82,0000.42
2023-02-03 18:01:00,,0830.5,4.99,0.00,24.9,23.8,00.0,33.7,26.7,06.8,0000.0,0001.98,0000.86,0000.42
2023-02-03 18:02:00,,0830.5,5.00,0.00,25.0,23.8,00.0,33.7,26.7,08.4,0000.0,0002.33,0000.98,0000.44
2023-02-03 18:03:00,,0830.5,5.02,0.00,25.0,23.9,00.0,33.7,26.8,06.5,0000.0,0002.29,0000.98,0000.44
2023-02-03 18:04:00,,0830.4,5.02,0.00,25.0,23.9,00.0,33.7,26.8,06.4,0000.0,0002.49,0000.92,0000.45
2023-02-03 18:05:00,,0830.4,5.00,0.00,25.0,23.9,00.0,33.7,26.8,06.4,0000.0,0004.14,0000.90,0000.48
2023-02-03 18:06:00,,0830.5,4.99,0.00,25.0,24.0,00.0,33.7,26.9,06.4,0000.0,0004.34,0000.96,0000.51
2023-02-03 18:07:00,,0830.4,4.97,0.00,25.1,24.0,00.0,33.8,26.9,07.0,0000.0,0004.62,0001.08,0000.56
2023-02-03 18:08:00,,0830.4,4.98,0.00,25.1,24.0,00.0,33.8,26.9,06.2,0000.0,0004.74,0001.14,0000.60
2023-02-03 18:09:00,,0830.4,5.02,0.00,25.1,24.1,00.0,33.8,26.9,06.3,0000.0,0005.50,0001.24,0000.64
2023-02-03 18:10:00,,0830.4,5.01,0.00,25.1,24.1,00.0,33.8,27.0,06.4,0000.0,0006.77,0001.37,0000.68
2023-02-03 18:11:00,,0830.5,5.02,0.00,25.1,24.1,00.0,33.8,27.0,06.1,0000.0,0007.07,0001.49,0000.71
2023-02-03 18:12:00,,0830.4,5.00,0.00,25.2,24.1,00.0,33.8,27.0,06.4,0000.0,0007.13,0001.52,0000.73
2023-02-03 18:13:00,,0830.4,4.98,0.00,25.2,24.2,00.0,33.9,27.0,06.6,0000.0,0006.92,0001.47,0000.73
2023-02-03 18:14:00,,0830.4,5.01,0.00,25.2,24.2,00.0,33.9,27.0,07.1,0000.0,0007.02,0001.49,0000.73
2023-02-03 18:15:00,,0830.4,5.00,0.00,25.2,24.2,00.0,33.9,27.0,07.3,0000.0,0006.95,0001.60,0000.76
2023-02-03 18:16:00,,0830.3,5.00,0.00,25.2,24.2,00.0,33.9,27.1,07.6,0000.0,0005.41,0001.69,0000.82
2023-02-03 18:17:00,,0830.4,4.99,0.00,25.3,24.2,00.0,33.9,27.1,07.8,0000.0,0005.58,0001.81,0000.90
2023-02-03 18:18:00,,0830.4,5.00,0.00,25.3,24.3,00.0,33.9,27.1,07.1,0000.0,0006.09,0001.89,0000.96
2023-02-03 18:19:00,,0830.3,5.00,0.00,25.3,24.3,00.0,34.0,27.1,06.4,0000.0,0006.55,0002.01,0001.00
2023-02-03 18:20:00,,0830.3,5.01,0.00,25.3,24.3,00.0,34.0,27.2,07.8,0000.0,0006.35,0002.13,0001.08
2023-02-03 18:21:00,,0830.3,5.01,0.00,25.3,24.3,00.0,34.0,27.2,08.2,0000.0,0006.02,0002.35,0001.22
2023-02-03 18:22:00,,0830.2,5.00,0.00,25.4,24.4,00.0,34.0,27.2,07.5,0000.0,0007.48,0002.54,0001.35
2023-02-03 18:23:00,,0830.2,5.00,0.00,25.4,24.4,00.0,34.0,27.3,07.7,0000.0,0008.23,0002.80,0001.47
2023-02-03 18:24:00,,0830.1,5.00,0.00,25.4,24.4,00.0,34.1,27.3,07.5,0000.0,0008.94,0002.96,0001.59
2023-02-03 18:25:00,,0830.1,5.01,0.00,25.4,24.4,00.0,34.1,27.3,07.9,0000.0,0009.79,0003.13,0001.72
2023-02-03 18:26:00,,0830.1,4.99,0.00,25.4,24.5,00.0,34.1,27.3,08.8,0000.0,0010.72,0003.38,0001.92
2023-02-03 18:27:00,,0830.1,4.99,0.00,25.5,24.5,00.0,34.1,27.3,08.4,0000.0,0011.30,0003.60,0002.09
2023-02-03 18:28:00,,0830.1,5.00,0.00,25.5,24.5,00.0,34.1,27.3,07.0,0000.0,0011.74,0003.70,0002.13
2023-02-03 18:29:00,,0830.1,5.01,0.00,25.5,24.5,00.0,34.2,27.4,07.0,0000.0,0012.34,0003.73,0002.14
2023-02-03 18:30:00,,0830.1,5.01,0.00,25.5,24.5,00.0,34.2,27.4,06.4,0000.0,0012.52,0003.77,0002.16
2023-02-03 18:31:00,,0830.1,4.99,0.00,25.6,24.6,00.0,34.2,27.4,06.5,0000.0,0012.75,0003.85,0002.17
2023-02-03 18:32:00,,0830.1,5.00,0.00,25.6,24.6,00.0,34.2,27.4,06.4,0000.0,0012.88,0003.81,0002.10
2023-02-03 18:33:00,,0830.1,5.01,0.00,25.6,24.6,00.0,34.2,27.5,06.9,0000.0,0012.40,0003.82,0002.06
2023-02-03 18:34:00,,0830.0,5.01,0.00,25.6,24.6,00.0,34.3,27.5,06.9,0000.0,0011.89,0003.76,0002.03
2023-02-03 18:35:00,,0830.0,5.00,0.00,25.6,24.7,00.0,34.3,27.5,07.3,0000.0,0011.86,0003.78,0002.01
2023-02-03 18:36:00,,0830.0,4.99,0.00,25.6,24.7,00.0,34.3,27.5,07.8,0000.0,0011.42,0003.79,0002.01
2023-02-03 18:37:00,,0830.0,5.00,0.00,25.7,24.7,00.0,34.3,27.5,07.2,0000.0,0010.58,0003.62,0001.86
2023-02-03 18:38:00,,0829.9,4.99,0.00,25.7,24.7,00.0,34.3,27.6,06.7,0000.0,0010.10,0003.45,0001.70
2023-02-03 18:39:00,,0829.9,5.01,0.00,25.7,24.8,00.0,34.4,27.6,06.5,0000.0,0010.02,0003.35,0001.64
2023-02-03 18:40:00,,0829.9,5.00,0.00,25.7,24.8,00.0,34.4,27.6,06.7,0000.0,0009.57,0003.30,0001.59
2023-02-03 18:41:00,,0829.9,4.99,0.00,25.7,24.8,00.0,34.4,27.6,07.0,0000.0,0009.74,0003.29,0001.58
2023-02-03 18:42:00,,0829.9,4.99,0.00,25.8,24.8,00.0,34.4,27.7,06.8,0000.0,0010.59,0003.20,0001.56
2023-02-03 18:43:00,,0829.9,5.00,0.00,25.8,24.9,00.0,34.5,27.7,06.6,0000.0,0010.84,0003.19,0001.54
2023-02-03 18:44:00,,0829.9,4.99,0.00,25.8,24.9,00.0,34.5,27.7,06.6,0000.0,0010.70,0003.17,0001.54
2023-02-03 18:45:00,,0829.8,5.00,0.00,25.9,24.9,00.0,34.5,27.7,06.8,0000.0,0011.05,0003.21,0001.54
2023-02-03 18:46:00,,0829.8,5.00,0.00,25.9,25.0,00.0,34.5,27.8,06.9,0000.0,0010.99,0003.21,0001.52
2023-02-03 18:47:00,,0829.8,5.00,0.00,25.9,25.0,00.0,34.6,27.8,06.7,0000.0,0011.63,0003.21,0001.49
2023-02-03 18:48:00,,0829.8,5.00,0.00,25.9,25.0,00.0,34.6,27.8,06.8,0000.0,0011.67,0003.25,0001.52
2023-02-03 18:49:00,,0829.7,5.00,0.00,26.0,25.0,00.0,34.6,27.8,06.7,0000.0,0011.89,0003.30,0001.59
2023-02-03 18:50:00,,0829.6,5.01,0.00,26.0,25.0,00.0,34.6,27.8,06.6,0000.0,0013.13,0003.37,0001.65
2023-02-03 18:51:00,,0829.7,5.00,0.00,26.0,25.1,00.0,34.6,27.9,06.3,0000.0,0013.68,0003.46,0001.73
2023-02-03 18:52:00,,0829.7,5.01,0.00,26.0,25.1,00.0,34.7,27.9,06.4,0000.0,0013.96,0003.46,0001.77
2023-02-03 18:53:00,,0829.6,5.01,0.00,26.0,25.1,00.0,34.7,27.9,06.6,0000.0,0013.23,0003.51,0001.82
2023-02-03 18:54:00,,0829.8,5.00,0.00,26.1,25.1,00.0,34.7,27.9,06.7,0000.0,0012.56,0003.54,0001.88
2023-02-03 18:55:00,,0829.6,5.00,0.00,26.1,25.2,00.0,34.7,28.0,06.5,0000.0,0013.70,0003.54,0001.92
2023-02-03 18:56:00,,0829.6,5.01,0.00,26.1,25.2,00.0,34.8,28.0,06.2,0000.0,0013.66,0003.54,0001.94
2023-02-03 18:57:00,,0829.6,5.00,0.00,26.1,25.2,00.0,34.8,28.0,06.7,0000.0,0014.07,0003.59,0001.99
2023-02-03 18:58:00,,0829.6,4.98,0.00,26.2,25.3,00.0,34.8,28.0,06.4,0000.0,0013.35,0003.59,0002.04
2023-02-03 18:59:00,,0829.6,4.97,0.00,26.2,25.3,00.0,34.8,28.1,06.3,0000.0,0013.83,0003.60,0002.08
